Regional Weather Roundup
Issued by NWS

Home | Current Version | Previous Version | Graphics & Text | Print | Product List | Glossary Off
Versions: 1 2 3 4 5 6 7 8 9 10 11 12 13 14 15 16 17 18 19 20 21 22 23 24 25 26 27 28 29 30 31 32 33 34 35 36 37 38 39 40 41 42 43 44 45 46 47 48 49 50

000
ASUS43 KDMX 232008
RWRIA

WEATHER ROUNDUP FOR IOWA
NATIONAL WEATHER SERVICE DES MOINES IA
300 PM CDT MON MAY 23 2016

NOTE: "FAIR" INDICATES FEW OR NO CLOUDS BELOW 12,000 FEET WITH NO
SIGNIFICANT WEATHER AND/OR OBSTRUCTIONS TO VISIBILITY.

* - THESE STATIONS ARE NOT NWS STATIONS...THUS NOT UNDER NWS
QUALITY CONTROL.  THEY ALSO DO NOT REPORT WEATHER SUCH
AS PRECIPITATION OR FOG.

IAZ001>003-012>014-020>022-031>034-043>046-232100-
   NORTHWEST IOWA

CITY           SKY/WX    TMP DP  RH WIND       PRES   REMARKS
CARROLL *      CLOUDY    64  63  94 S18G26    29.80F
CHEROKEE *     CLOUDY    73  68  83 S9        29.76F
DENISON *      SUNNY     70  64  83 SW9G23    29.78R
LE MARS *      MOSUNNY   77  68  73 S10       29.75S
ORANGE CITY *  SUNNY     75  66  73 S10       29.75F
SHELDON *      PTSUNNY   75  66  73 S15       29.74F
SIOUX CITY     CLOUDY    80  66  62 S13       29.74R HX  82
SPENCER        CLOUDY    73  62  68 S17       29.78R
STORM LAKE *   MOSUNNY   70  63  78 S14       29.78F
$$

IAZ055>058-069>071-079>083-090>094-232100-
   SOUTHWEST IOWA

CITY           SKY/WX    TMP DP  RH WIND       PRES   REMARKS
ATLANTIC *     MOSUNNY   73  63  68 SE18G26   29.80F
AUDUBON *        N/A     66  63  88 SE13      29.83F
CLARINDA *       N/A     70  63  78 MISG      29.86R
COUNCIL BLFS * CLOUDY    73  66  78 S13       29.80R
CRESTON *      CLOUDY    66  63  88 S22       29.88F
HARLAN  *        N/A    N/A N/A N/A MISG        N/A
LAMONI         LGT RAIN  66  60  81 SW13      29.90F
RED OAK *      MOSUNNY   73  61  64 S24       29.83R
SHENANDOAH *   MOSUNNY   73  63  68 SE29G37   29.83R
$$

IAZ047>049-059>061-072>074-084-232100-
   CENTRAL IOWA

CITY           SKY/WX    TMP DP  RH WIND       PRES   REMARKS
AMES           CLOUDY    76  60  57 S18G31    29.84R
ANKENY *       PTSUNNY   77  61  57 S16G28    29.86R
BOONE *        PTSUNNY   75  61  60 SW21G29   29.84R
CHARITON *     PTSUNNY   77  57  50 S14G22    29.88S
DES MOINES     CLOUDY    76  58  53 S17       29.87R
GRINNELL*      MOSUNNY   81  55  41 S20G28    29.87S HX  80
KNOXVILLE *    MOSUNNY   79  55  44 S17G28    29.86S
MARSHALLTOWN   MOSUNNY   82  58  43 S24G32    29.84R HX  82
NEWTON *       PTSUNNY   81  57  44 S18G26    29.85S HX  81
PELLA *        CLOUDY    82  55  39 S15G24    29.88  HX  82
PERRY *        PTSUNNY   73  64  73 SW17      29.87R
$$

IAZ004>006-015-016-023>025-035-036-232100-
   NORTH CENTRAL IOWA

CITY           SKY/WX    TMP DP  RH WIND       PRES   REMARKS
ALGONA *       PTSUNNY   70  61  73 S18G26    29.80S
ESTHERVILLE    CLOUDY    73  62  68 S24       29.79R
FORT DODGE *   CLOUDY    68  63  83 S18G24    29.83S
MASON CITY     TSTM      68  63  84 S21       29.84S
FOREST CITY *  LGT RAIN  63  63 100 S13       29.81F
WEBSTER CITY * CLOUDY    72  66  83 S13       29.81S
IOWA FALLS *   PTSUNNY   81  59  47 S28G33    29.84S HX  81
$$

IAZ007>011-017>019-026>030-037>042-050>054-066-232100-
   NORTHEAST IOWA

CITY           SKY/WX    TMP DP  RH WIND       PRES   REMARKS
CEDAR RAPIDS   SUNNY     85  50  29 S22G29    29.87F HX  83
CHARLES CITY * MOSUNNY   84  55  37 S25G33    29.82F HX  83
CLINTON *      CLOUDY    84  48  28 S21G26    29.91F HX  82
DECORAH *      MOSUNNY   82  50  32 S14G22    29.84F HX  81
DUBUQUE        PTSUNNY   81  47  30 SW16G26   29.91F HX  80
MONTICELLO *   SUNNY     84  46  26 S16G30    29.89F HX  82
OELWEIN *      SUNNY     84  52  32 S20G32    29.85F HX  82
WATERLOO       MOSUNNY   85  55  35 S24G32    29.82F HX  83
$$

IAZ064-065-067-068-078-232100-
   EAST CENTRAL IOWA

CITY           SKY/WX    TMP DP  RH WIND       PRES   REMARKS
DAVENPORT      CLOUDY    85  44  23 S14       29.91F HX  82
IOWA CITY      SUNNY     85  49  28 S17G24    29.90F HX  83
MT. PLEASANT * MOSUNNY   86  46  25 S18G25    29.91F HX  83
MUSCATINE *    SUNNY     86  46  25 S17       29.90F HX  83
QUAD CITIES    CLOUDY    85  47  26 S18       29.90F HX  82
$$

IAZ062-063-075>077-085>089-095>099-232100-
   SOUTHEAST IOWA

CITY           SKY/WX    TMP DP  RH WIND       PRES   REMARKS
BURLINGTON     MOSUNNY   84  48  28 S16       29.91F HX  82
FAIRFIELD *      N/A    N/A N/A N/A MISG        N/A
FORT MADISON * SUNNY     84  50  30 S15G21    29.93S HX  82
KEOKUK *       SUNNY     82  48  30 SW17      29.92S HX  81
OSKALOOSA *      N/A     82  54  36 S18G24    29.89S HX  81
OTTUMWA        CLOUDY    81  54  39 S20G26    29.89S HX  81
WASHINGTON *   SUNNY     84  46  26 S16G25    29.91S HX  82
$$

ABBREVIATIONS USED IN REMARKS
   TC - TEMPERATURES IN CELSIUS
  WCI - WIND CHILL INDEX
   HX - HEAT INDEX
  VSB - VISIBILITY
$$




USA.gov is the U.S. government's official web portal to all federal, state and local government web resources and services.